Regional Weather Roundup
Issued by NWS Kansas City/Pleasant Hill, MO

Home | Current Version | Previous Version | Graphics & Text | Print | Product List | Glossary Off
Versions: 1 2 3 4 5 6 7 8 9 10 11 12 13 14 15 16 17 18 19 20 21 22 23 24 25 26 27 28 29 30 31 32 33 34 35 36 37 38 39 40 41 42 43 44 45 46 47 48 49 50

000
ASUS43 KEAX 280111
RWREAX

WEATHER ROUNDUP FOR EASTERN KANSAS AND NORTHWEST MISSOURI
NATIONAL WEATHER SERVICE KANSAS CITY/PLEASANT HILL MO
700 PM CST TUE JAN 27 2015

KSZ040-057-103>105-MOZ028-029-037-043-280200-
...KANSAS CITY METROPOLITAN AREA...

CITY           SKY/WX    TMP DP  RH WIND       PRES   REMARKS
K.C. INTL      CLEAR     47  31  53 E12       30.09R
K.C. DOWNTOWN  CLEAR     51  31  46 E5        30.10R
LEES SUMMIT    CLEAR     45  29  53 E8        30.11R
OLATHE - IXD   CLEAR     47  32  56 SE9       30.09R
OLATHE - OJC   CLEAR     48  31  51 E6        30.09R
LAWRENCE       CLEAR     44  31  60 E10       30.07R

$$

MOZ001>008-011>017-020>025-030>033-038>040-044>046-053-054-280200-
...NORTHERN AND CENTRAL MISSOURI...

CITY           SKY/WX    TMP DP  RH WIND       PRES   REMARKS
ST. JOSEPH     CLEAR     47  30  51 E10       30.09R
MOSBY          CLEAR     45  32  61 E5        30.12R
WARRENSBURG    CLEAR     43  32  65 E7        30.12S
WHITEMAN AFB   CLEAR     43  31  63 E7        30.12S
CLINTON        CLEAR     45  34  65 E5        30.12F
SEDALIA        CLEAR     44  31  60 E5        30.15R
WARSAW         NOT AVBL
MARSHALL       CLEAR     46  34  61 SE5       30.15S
CHILLICOTHE      N/A     42  32  67 E7        30.14S
MOBERLY        CLEAR     37  28  70 E8        30.17S WCI  31
KIRKSVILLE     CLEAR     35  32  88 E9        30.17S WCI  28

$$

MOZ041-047>049-056>058-063>065-088>090-097-280200-
...EASTERN AND SOUTHERN MISSOURI...

CITY           SKY/WX    TMP DP  RH WIND       PRES   REMARKS
ST. LOUIS INTL CLEAR     34  27  75 E9        30.23R WCI  27
SPIRIT OF STL  CLEAR     36  30  79 NE9       30.21R WCI  29
COLUMBIA       CLEAR     40  32  73 E9        30.16S WCI  34
JEFFERSON CITY CLEAR     42  32  67 E6        30.17R
MEXICO         CLEAR     36  34  93 E5        30.18R WCI  32
HANNIBAL       CLEAR     34  27  75 E8        30.21R WCI  27
ROLLA          CLEAR     35  29  78 E3        30.15R
LEBANON        CLEAR     45  28  53 E5        30.14S
OSAGE BEACH    CLEAR     46  28  49 E6        30.15S
SPRINGFIELD    CLEAR     43  27  53 E5        30.12R
BRANSON        CLEAR     46  27  46 CALM      30.13R
NEVADA         CLEAR     46  28  49 E6        30.11S
JOPLIN         CLEAR     53  27  36 E3        30.09R
WEST PLAINS    CLEAR     43  27  53 E3        30.16R

$$

IAZ060-094-KSZ022-034>040-054-083-096-NEZ052-066-093-280200-
...KANSAS...SOUTHEAST NEBRASKA AND IOWA...

CITY           SKY/WX    TMP DP  RH WIND       PRES   REMARKS
TOPEKA         CLEAR     48  32  53 E8        30.05S
MANHATTAN      CLEAR     52  34  50 VRB5      30.00R
EMPORIA        CLEAR     52  35  52 SE12      30.02S
CHANUTE        CLEAR     51  34  52 SE7       30.06S
WICHITA        CLEAR     60  36  40 S12       29.99S
OMAHA          CLEAR     43  31  62 SE12      30.05R
LINCOLN        CLEAR     48  32  53 SE12      30.02S
FALLS CITY     CLEAR     41  29  62 E8        30.06R
LAMONI         CLEAR     40  29  64 E5        30.11S
DES MOINES     CLEAR     36  29  75 SE10      30.15S WCI  28

$$




USA.gov is the U.S. government's official web portal to all federal, state and local government web resources and services.